Volver al catálogo

STARLINK-2196

ActivoComunicacionesVLEO
NORAD 47773·PAYLOAD·🇺🇸 United States

Lanzado Mar 4, 2021 desde Cape Canaveral Space Force Station

Loading…

Próximos Pases (próximas 24 horas)

TLE

ActualizadoSource: CelesTrak SupGP

Época: Sep 15, 2026, 02:25 UTC

1 47773C 21017BD  26258.10118056 -.00005728  00000+0 -13358-3 0  2588
2 47773  53.1607  53.1673 0001385 323.1953 343.1798 15.41660279    17

Sigue STARLINK-2196 en tiempo real con AllMySat

Download on the App Store